This is the latest recevied weather packets stored in our database for station/object KG4AGD. If no packets are shown the sender has not sent any weather packets the latest 10 day(s).
| Time | Temp. | Humidity | Pressure | Rain* | Wind** | Luminosity | Snow |
|---|---|---|---|---|---|---|---|
| 1777738764 | 11.67° C | - | - | - | - | - | - |
| 1777738461 | 11.67° C | - | - | - | - | - | - |
| 1777738159 | 11.67° C | 100% | 1014.9 hPa | 7.37 mm | - | - | - |
| 1777737857 | 11.67° C | 99% | 1014.9 hPa | 7.11 mm | - | - | - |
| 1777737555 | 11.67° C | 100% | 1014.9 hPa | 7.11 mm | - | - | - |
| 1777737253 | 11.67° C | 100% | 1014.9 hPa | 7.11 mm | - | - | - |
| 1777736951 | 11.67° C | 100% | 1014.5 hPa | 6.86 mm | - | - | - |
| 1777736648 | 12.22° C | 100% | 1014.5 hPa | 6.86 mm | - | - | - |
| 1777736346 | 12.22° C | 100% | 1014.5 hPa | 6.6 mm | - | - | - |
| 1777736044 | 12.22° C | 100% | 1014.5 hPa | 6.6 mm | - | - | - |
| 1777735742 | 12.22° C | 100% | 1014.2 hPa | 6.6 mm | - | - | - |
| 1777735439 | 12.22° C | 100% | 1014.2 hPa | 6.6 mm | - | - | - |
| 1777735137 | 12.22° C | 100% | 1014.2 hPa | 6.6 mm | - | - | - |
| 1777734835 | 11.67° C | 100% | 1014.2 hPa | 6.6 mm | - | - | - |
| 1777734533 | 11.67° C | 100% | 1014.2 hPa | 6.6 mm | - | - | - |
| 1777734231 | 11.67° C | 100% | 1014.2 hPa | 6.35 mm | - | - | - |
| 1777733928 | 11.67° C | 100% | 1014.2 hPa | 6.1 mm | - | - | - |
| 1777733626 | 11.67° C | 100% | 1014.5 hPa | 5.84 mm | - | - | - |
| 1777733323 | 11.67° C | 100% | 1014.5 hPa | 5.84 mm | - | - | - |
| 1777732289 | 11.67° C | 100% | 1014.9 hPa | 5.33 mm | - | - | - |
| 1777731191 | 11.67° C | 100% | 1014.5 hPa | 4.57 mm | - | - | - |
| 1777730889 | 11.67° C | 100% | 1014.5 hPa | 4.57 mm | - | - | - |
| 1777730587 | 11.67° C | 99% | 1014.2 hPa | 4.57 mm | - | - | - |
| 1777730284 | 11.67° C | 100% | 1014.2 hPa | 4.57 mm | - | - | - |
| 1777729982 | 11.67° C | 100% | 1013.8 hPa | 4.32 mm | - | - | - |
* Rain since midnight (hover to see other rain measurements)
** Current wind speed in m/s (hover to see current wind gust speed)